Location: Nairn
(57.5833°N, 3.8667°W)
Time: 19:14:25
(UTC+00:00)

Cosmos 968 Rocket - Pass Details

Date: 07 August 2020
Orbit: 740 x 772 km, 74.0° (Epoch: 24 September)

Event Time Altitude Azimuth Distance (km) Brightness Sun altitude
Exits shadow 00:19:10 25° 160° (SSE) 1,464 4.4 -16.1°
Maximum altitude 00:21:33 41° 107° (ESE) 1,074 4.1 -16.1°
Drops below altitude 10° 00:26:21 10° 39° (NE) 2,271 6.7 -16.1°
Sets 00:28:49 0° 32° (NNE) 3,203 7.8 -16.1°
